{"data":{"norad_id":64267,"epoch":"2026-09-20T13:11:39.352128Z","epoch_age_seconds":133503,"freshness":"FRESH","line1":"1 64267U 25120M   26263.54976102  .00019158  00000+0  57649-3 0  9995","line2":"2 64267  53.1600 285.6570 0000920  84.4107 275.7001 15.34410869 73834","mean_motion":15.34410869,"eccentricity":9.2e-5,"inclination_deg":53.16,"raan_deg":285.657,"arg_perigee_deg":84.4107,"mean_anomaly_deg":275.7001,"bstar":0.00057649,"rev_number":7383,"period_min":93.847093310703,"perigee_km":462.0415811092,"apogee_km":463.30028976932,"semimajor_km":6840.8079354393,"source":"CELESTRAK","updated_at":"2026-09-21T09:00:35.283699Z"}}